Weather in Sary-Tash

Kyrgyzstan     39°43′29″N   73°15′09″E
temp.,
°C
wind,
m/s
gust,
m/s
humid.,
%
clouds,
%
prec.,
mm/h
press.,
hPa
HPBL,
m
20 april, tue
tue2000:00−13wsw12835 0.0 103211
03:00−14w127549 0.0 103112
06:00−15w227859 0.0 103213
09:00−8wsw2265100 0.0 102466
12:00−4ssw226569 0.0 1019200
15:00−3ssw227038 0.0 1017270
18:00−4ssw1279100 0.1 101748
21:00−11w1183100 0.1 102510
21 april, wed
wed2100:00−12nnw018524 0.1 102510
03:00−12wsw1187100 0.0 102510
06:00−11wnw1191100 0.0 102316
09:00−7wsw228198 0.0 1019107
12:00−4ene228095 0.1 1014311
15:00−4nne4594100 3.2 1015514
18:00−4ne3395100 5.8 1016371
21:00−7nne3395100 2.4 1021129
22 april, thu
thu2200:00−9w1191100 2.8 102411
03:00−10wsw1190100 0.1 102516
06:00−12nw1190100 0.1 103010
09:00−9wsw118268 0.0 1028107
12:00−5wsw236515 0.0 1024714
15:00−4wnw37592 0.0 10231209
18:00−5nw227810 0.0 102690
21:00−15wnw128912 0.0 104210
23 april, fri
fri2300:00−18wsw22640 0.0 104611
03:00−20wsw12470 0.0 104811
06:00−21wsw22460 0.0 105012
09:00−13sw23570 0.0 104185
12:00−9sw23570 0.0 1034182
15:00−5ssw22560 0.0 1029215
18:00−7sse11732 0.0 103023
21:00−14wsw117398 0.0 104011
24 april, sat
sat2400:00−16w127837 0.0 104212
03:00−17wsw22615 0.0 104312
06:00−18wsw226163 0.0 104413
09:00−10sw336083 0.0 103577
12:00−4sw235312 0.0 1027172
15:00−1sw2256100 0.0 1025182
18:00−3ssw1176100 0.0 102616
21:00−8wsw1171100 0.0 103111